Location: Central Falls
(41.8900°N, 71.3929°W)
Time: 22:32:49
(UTC+00:00)

Courier 1B Rocket - Pass Details

Date: 08 December 2023
Orbit: 920 x 1202 km, 28.2° (Epoch: 04 March)

Event Time Altitude Azimuth Distance (km) Brightness Sun altitude
Rises 14:39:50 0° 216° (SW) 3,893 8.5 19.9°
Reaches altitude 10° 14:43:57 10° 195° (SSW) 2,875 8.3 20.3°
Maximum altitude 14:47:44 15° 161° (SSE) 2,448 9.6 20.6°
Drops below altitude 10° 14:51:23 10° 128° (SE) 2,765 8.7 20.9°
Sets 14:55:13 0° 107° (ESE) 3,662 8.6 21.2°
